NOAA 16 DEB, 41663

Orbit data source: Space-Track

NOAA 16 DEB, 41663 is space debris in SSO originally from a launch on Thu, 21 Sep 2000 UTC launched from the Air Force Western Test Range (AFWTR). Debris objects in space refer to the collection of defunct objects orbiting the Earth. Examples of debris include non-operational satellites, rocket bodies, and fragments generated from explosions, collisions, or faulty payload assembly.

Loading next visibility...
Identifier
41663, 2000-055PC
Orbit
SSO
Country
Flag of USUS
Related business
Manufacturer
Unknown
Mission
Spacecraft
Bus & Motor
Unknown
Mass
Unknown
Launch date (UTC)
2000-09-21 (25 years ago)
Launch vehicle
Unknown
Launch site
Air Force Western Test Range (AFWTR)
Object type
Payload
Rocket body
Debris
Shape & HBR
Unknown shape, 0.1 m
Radar Cross Section
Small (<0.1 m²)

Expand to show TLE details & history
Last TLE update: 23 hours ago

TLE from 23 hours ago
0 NOAA 16 DEB
1 41663U 00055PC  25287.30937054  .00016038  00000-0  41011-2 0  9992
2 41663  98.8266  57.1506 0014534 151.0962 209.1039 14.50436119492920
Epoch: 2025-10-14T07:25Z
TLE epoch observation values (Epoch: 2025-10-14T07:25:29.614Z)
Latitude
-0.00001°
Longitude
-77.32244°
Altitude
736.201 km
Speed
7.482 km/s
True Right ascension
03h 48m 36s
True Declination
0° 00' 00"
Sunlit
Object was in full shadow at epoch
Visualization orbit readout
Latitude
Unknown
Longitude
Unknown
Altitude
Unknown
Speed
Unknown
Apparent Right ascension
Unknown
Apparent Declination
Unknown
Sunlit
N/A
Visualization observer readout
Local Sidereal Time
00:34:21
Azimuth
Unknown
Elevation
Unknown
Doppler factor
Unknown
Orbital elements
Apogee altitude
731.667 km
Perigee altitude
711.03 km
Semi-major axis
7,099.485 km
Eccentricity
0.00145
Inclination
98.8266°
RAAN
57.1506°
Arg. of periapsis
151.0962°
True anomaly
209.02302°
Mean anomaly
209.1039°
Eccentric anomaly
209.06345°
Mean motion
3.6283 °/min
Orbital period
99.22 mins
BSTAR
0.0041011
Loading maneuver chart data...
Computing Atmospheric mass density...
Loading historical data...
Loading historical data...
Loading historical data...
Loading historical data...
Loading historical data...
Loading historical data...
Loading historical data...

Documentation

Showing up to 5 results
|